Location: Lecco
(45.8566°N, 9.3977°E)
Time: 13:19:33
(UTC+02:00)

Vanguard 2 Rocket - Pass Details

Date: 14 August 2020
Orbit: 554 x 3326 km, 32.9° (Epoch: 24 September)

Event Time Altitude Azimuth Distance (km) Brightness Sun altitude
Rises 16:52:01 0° 200° (SSW) 2,900 10.0 36.7°
Reaches altitude 10° 16:55:46 10° 166° (SSE) 2,282 9.1 36.1°
Maximum altitude 16:57:30 12° 146° (SE) 2,338 9.0 35.8°
Drops below altitude 10° 16:59:26 10° 127° (SE) 2,646 9.1 35.5°
Sets 17:04:58 0° 98° (E) 4,238 9.9 34.5°
